This is the latest recevied weather packets stored in our database for station/object EB2EMZ-W. If no packets are shown the sender has not sent any weather packets the latest 10 day(s).
| Time | Temp. | Humidity | Pressure | Rain* | Wind** | Luminosity | Snow |
|---|---|---|---|---|---|---|---|
| 1777957715 | 12.22° C | 84% | 1042 hPa | 0 mm | - | - | - |
| 1777955903 | 12.22° C | 83% | 997 hPa | 0 mm | - | - | - |
| 1777954091 | 12.22° C | 83% | 997 hPa | 0 mm | - | - | - |
| 1777952280 | 12.22° C | 83% | 1042 hPa | 0 mm | - | - | - |
| 1777950468 | 11.67° C | 83% | 997 hPa | 0 mm | - | - | - |
| 1777948657 | 12.22° C | 82% | 997 hPa | 0 mm | - | - | - |
| 1777946845 | 12.78° C | 80% | 997 hPa | 0 mm | - | - | - |
| 1777945033 | 12.78° C | 80% | 998 hPa | 0 mm | - | - | - |
| 1777943222 | 12.78° C | 78% | 998 hPa | 0 mm | - | - | - |
| 1777941410 | 12.78° C | 79% | 998 hPa | 0 mm | - | - | - |
| 1777939597 | 13.33° C | 80% | 1042 hPa | 1.02 mm | - | - | - |
| 1777937786 | 13.33° C | 79% | 1042 hPa | 1.02 mm | - | - | - |
| 1777935101 | 13.33° C | 75% | 998 hPa | 0 mm | - | - | - |
| 1777933281 | 13.33° C | 74% | 998 hPa | 0 mm | - | - | - |
| 1777931462 | 13.33° C | 74% | 998 hPa | 0 mm | - | - | - |
| 1777929641 | 13.33° C | 74% | 998 hPa | 0 mm | - | - | - |
| 1777927822 | 13.33° C | 71% | 998 hPa | 0 mm | - | - | - |
| 1777926002 | 13.89° C | 66% | 1045 hPa | 0 mm | - | - | - |
| 1777924182 | 14.44° C | 63% | 998 hPa | 0 mm | - | - | - |
| 1777922362 | 15° C | 55% | 997 hPa | 0 mm | - | - | - |
| 1777920542 | 15° C | 49% | 997 hPa | 0 mm | - | - | - |
| 1777918722 | 16.11° C | 48% | 997 hPa | 0 mm | - | - | - |
| 1777916904 | 17.22° C | 43% | 998 hPa | 0 mm | - | - | - |
| 1777915084 | 17.78° C | 43% | 997 hPa | 0 mm | - | - | - |
| 1777913264 | 18.33° C | 39% | 997 hPa | 0 mm | - | - | - |
* Rain latest hour (hover to see other rain measurements)
** Current wind speed in m/s (hover to see current wind gust speed)